Weather History for Calgary Springbank, AB

Change the Weather History Date:

Saturday, March 16, 2013

  Actual Average Record
Temperature  
Mean Temperature 14 °F -  
Max Temperature 17 °F 40 °F 50 °F (2004)
Min Temperature 10 °F 19 °F -9 °F (2002)
Degree Days  
Heating Degree Days 52    
Moisture  
Dew Point 12 °F    
Average Humidity 91    
Maximum Humidity 93    
Minimum Humidity 82    
Precipitation  
Precipitation 0.02 in - - ()
Sea Level Pressure  
Sea Level Pressure 29.97 in    
Wind  
Wind Speed 11 mph ()    
Max Wind Speed 17 mph    
Max Gust Speed 18 mph    
Visibility 1.9 miles    
Events Fog , Snow    
Averages and records for this station are not official NWS values.
T = Trace of Precipitation, MM = Missing Value Source: Averaged Metar Reports

Daily Weather History Graph

Daily Weather History Graph

Search for Another Location

Airport:

Trip Planner

Search our weather history database for the weather conditions in past years. The results will help you decide how hot, cold, wet, or windy it might be!

Date:

Astronomy

Mar. 16, 2013 Rise Set
Actual Time 7:48 AM MDT 7:44 PM MDT
Civil Twilight 7:15 AM MDT 8:17 PM MDT
Nautical Twilight 6:36 AM MDT 8:56 PM MDT
Astronomical Twilight 5:56 AM MDT 9:36 PM MDT
Moon 9:46 AM MDT 12:33 AM MDT
Length of Visible Light 13h 02m
Length of Day
11h 56m
Waxing Crescent, 23% of the Moon is Illuminated
Mar 16
Waxing Crescent
Mar 19
First Quarter
Mar 27
Full
Apr 2
Last Quarter
Apr 10
New

Hourly Weather History & Observations

Time (MDT) Temp. Windchill Dew Point Humidity Pressure Visibility Wind Dir Wind Speed Gust Speed Precip Events Conditions
6:00 AM 11 °F - 9 °F 86% 30.15 in 5 mi SE 11.5 mph - - Snow Light Snow
6:00 AM 10.4 °F -4.8 °F 8.6 °F 92% 30.15 in 5.0 mi SE 12.7 mph - N/A Snow Light Snow
7:00 AM 10.4 °F -4.1 °F 8.6 °F 92% 30.14 in 3.0 mi SE 11.5 mph - N/A Snow Light Snow
8:00 AM 10.4 °F -4.8 °F 8.6 °F 92% 30.12 in 0.5 mi ESE 12.7 mph - N/A Fog , Snow Light Snow
9:00 AM 10.4 °F -5.4 °F 8.6 °F 92% 30.09 in 0.5 mi SE 13.8 mph - N/A Fog , Snow Light Snow
10:00 AM 12.2 °F -3.1 °F 8.6 °F 85% 30.09 in 0.5 mi SSE 13.8 mph - N/A Snow Light Snow
11:00 AM 12.2 °F -1.8 °F 10.4 °F 92% 30.07 in 0.6 mi SE 11.5 mph - N/A Snow Light Snow
11:50 AM 14.0 °F -0.2 °F 10.4 °F 86% 30.05 in 3.0 mi SSE 12.7 mph - N/A Snow Light Snow
12:00 PM 14 °F - 11 °F 82% 30.04 in 3 mi SSE 15.0 mph - - Snow Light Snow
12:00 PM 14.0 °F -2.5 °F 10.4 °F 86% 30.04 in 3.0 mi SE 17.3 mph - N/A Snow Light Snow
12:18 PM 14.0 °F -0.2 °F 12.2 °F 93% 30.04 in 4.0 mi SSE 12.7 mph 18.4 mph N/A Snow Light Snow
1:00 PM 14.0 °F -0.8 °F 12.2 °F 93% 30.02 in 4.0 mi SSE 13.8 mph - N/A Snow Light Snow
2:00 PM 15.8 °F 2.7 °F 14.0 °F 93% 29.99 in 4.0 mi SE 11.5 mph 18.4 mph N/A Snow Light Snow
3:00 PM 15.8 °F 2.1 °F 14.0 °F 93% 29.96 in 4.0 mi SE 12.7 mph 18.4 mph N/A Snow Light Snow
4:00 PM 15.8 °F 2.1 °F 14.0 °F 93% 29.92 in 4.0 mi SE 12.7 mph - N/A Snow Light Snow
4:32 PM 15.8 °F 2.1 °F 14.0 °F 93% 29.91 in 0.8 mi SSE 12.7 mph - N/A   Overcast
5:00 PM 15.8 °F 2.1 °F 14.0 °F 93% 29.89 in 0.6 mi SSE 12.7 mph - N/A   Overcast
6:00 PM 16 °F - 14 °F 89% 29.86 in 1 mi SE 13.8 mph - -   Mist
6:00 PM 15.8 °F 1.4 °F 14.0 °F 93% 29.86 in 0.6 mi SE 13.8 mph - N/A   Overcast
7:00 PM 15.8 °F 2.7 °F 14.0 °F 93% 29.84 in 0.5 mi SE 11.5 mph - N/A Fog Light Freezing Fog
7:15 PM 15.8 °F 2.7 °F 14.0 °F 93% 29.83 in 0.4 mi SE 11.5 mph - N/A Fog Light Freezing Fog
8:00 PM 15.8 °F 2.1 °F 14.0 °F 93% 29.82 in 0.2 mi SE 12.7 mph - N/A Fog Light Freezing Fog
8:15 PM 15.8 °F 1.4 °F 14.0 °F 93% 29.81 in 0.1 mi SE 13.8 mph - N/A Fog Light Freezing Fog
9:00 PM 15.8 °F 1.4 °F 14.0 °F 93% 29.78 in 0.1 mi SE 13.8 mph - N/A Fog Light Freezing Fog
10:00 PM 15.8 °F 2.7 °F 14.0 °F 93% 29.78 in 0.1 mi East 11.5 mph - N/A Fog Light Freezing Fog